Location: Borbetomagus
(49.6328°N, 8.3592°E)
Time: 10:12:48
(UTC+00:00)

BlueWalker 3 - Visible Passes

Search period start: 21 January 2026 00:00
Search period end: 31 January 2026 00:00
Orbit: 451 x 463 km, 53.2° (Epoch: 20 January)

Date Brightness Start Highest point End Pass type
(mag) Time Alt. Az. Time Alt. Az. Time Alt. Az.
21 Jan 3.8 17:23:24 10° SSE 17:25:18 14° SE 17:25:58 13° ESE visible
21 Jan 4.3 18:58:41 10° SW 18:59:43 18° SW 18:59:43 18° SW visible
22 Jan 4.1 16:49:01 10° SSE 16:50:00 11° SE 16:50:57 10° ESE visible
22 Jan 2.6 18:23:20 10° SW 18:25:59 41° SSW 18:25:59 41° SSW visible
23 Jan 2.2 17:47:59 10° SW 17:51:23 44° SSE 17:52:09 37° ESE visible
23 Jan 4.9 19:25:20 10° W 19:25:53 14° W 19:25:53 14° W visible
24 Jan 2.6 17:12:40 10° SSW 17:15:57 35° SE 17:18:14 17° E visible
24 Jan 3.4 18:49:47 10° W 18:51:58 34° W 18:51:58 34° W visible
25 Jan 1.7 18:14:13 10° WSW 18:17:47 73° NNW 18:17:58 70° N visible
26 Jan 1.7 17:38:39 10° WSW 17:42:13 83° NNW 17:43:54 29° ENE visible
26 Jan 4.5 19:16:31 10° WNW 19:17:38 18° WNW 19:17:38 18° WNW visible
27 Jan 1.7 17:03:04 10° WSW 17:06:39 84° SSE 17:09:47 13° ENE visible
27 Jan 3.0 18:40:53 10° W 18:43:31 38° NW 18:43:31 38° NW visible
28 Jan 2.2 18:05:12 10° W 18:08:41 48° N 18:09:21 41° NNE visible
28 Jan 5.2 19:42:59 10° WNW 19:43:04 10° WNW 19:43:04 10° WNW visible
29 Jan 2.2 17:29:30 10° W 17:32:59 51° N 17:35:09 21° ENE visible
29 Jan 4.0 19:07:21 10° WNW 19:08:53 23° WNW 19:08:53 23° WNW visible
30 Jan 2.1 16:53:46 10° W 16:57:17 55° NNW 17:00:49 10° ENE visible
30 Jan 2.5 18:31:39 10° WNW 18:34:39 44° NNW 18:34:39 44° NNW visible
